Aberdeen / Amory, MS

2:53 PM CST on December 09, 2019 (GMT -0600)
Aberdeen / Amory

Weather History for KM40 - June, 2019

Change the Weather History Date:

Sunday, June 9, 2019

  Actual Average (WUND) Record (WUND)
Temperature  
Mean Temperature 76 °F -  
Max Temperature 84 °F - - (-1)
Min Temperature 68 °F - - (-1)
Cooling Degree Days 11    
Growing Degree Days 26 (Base 50)    
Moisture  
Dew Point 71 °F    
Average Humidity 88    
Maximum Humidity 100    
Minimum Humidity 54    
Precipitation  
Precipitation 0.00 in - - ()
Sea Level Pressure  
Sea Level Pressure 29.87 in    
Wind  
Wind Speed 2 mph ()    
Max Wind Speed 12 mph    
Max Gust Speed 16 mph    
Visibility 8.5 miles    
Events      
Averages and records for this station are not official NWS values.
T = Trace of Precipitation, MM = Missing Value Source: Averaged Metar Reports

Daily Weather History Graph

Daily Weather History Graph

Search for Another Location

Airport or City:

Astronomy

Jun. 09, 2019 Rise Set
Actual Time 5:42 AM CDT 8:03 PM CDT
Civil Twilight 5:13 AM CDT 8:32 PM CDT
Nautical Twilight 4:38 AM CDT 9:08 PM CDT
Astronomical Twilight 3:59 AM CDT 9:47 PM CDT
Moon 12:11 PM CDT 12:52 AM CDT
Length of Visible Light 15h 19m
Length of Day
14h 21m
Waxing Crescent, 44% of the Moon is Illuminated
Jun 9
Waxing Crescent
Jun 10
First Quarter
Jun 17
Full
Jun 25
Last Quarter
Jul 2
New

Hourly Weather History & Observations

Time (CDT) Temp. Heat Index Dew Point Humidity Pressure Visibility Wind Dir Wind Speed Gust Speed Precip Events Conditions
12:15 AM 69.8 °F - 69.8 °F 100% 29.78 in 8.0 mi Calm Calm - N/A   Overcast
12:35 AM 69.8 °F - 69.8 °F 100% 29.79 in 10.0 mi Calm Calm - N/A   Overcast
12:55 AM 69.8 °F - 69.8 °F 100% 29.79 in 10.0 mi Calm Calm - N/A   Overcast
1:15 AM 69.8 °F - 69.8 °F 100% 29.79 in 10.0 mi Calm Calm - N/A   Overcast
1:35 AM 69.8 °F - 69.8 °F 100% 29.79 in 10.0 mi Calm Calm - N/A   Overcast
1:55 AM 71.6 °F - 71.6 °F 100% 29.78 in 10.0 mi Calm Calm - N/A   Overcast
2:15 AM 71.6 °F - 71.6 °F 100% 29.78 in 10.0 mi Calm Calm - N/A   Overcast
2:35 AM 71.6 °F - 71.6 °F 100% 29.79 in 10.0 mi Calm Calm - N/A   Overcast
3:15 AM 71.6 °F - 71.6 °F 100% 29.79 in 10.0 mi Calm Calm - N/A   Overcast
3:35 AM 69.8 °F - 69.8 °F 100% 29.78 in 10.0 mi Calm Calm - N/A   Overcast
3:55 AM 69.8 °F - 69.8 °F 100% 29.79 in 10.0 mi Calm Calm - N/A   Overcast
4:15 AM 69.8 °F - 69.8 °F 100% 29.79 in 9.0 mi Calm Calm - N/A   Overcast
4:35 AM 69.8 °F - 69.8 °F 100% 29.80 in 5.0 mi Calm Calm - N/A   Overcast
4:55 AM 69.8 °F - 69.8 °F 100% 29.80 in 8.0 mi Calm Calm - N/A   Mostly Cloudy
5:15 AM - - - N/A% 29.81 in 8.0 mi Calm Calm - N/A   Overcast
5:35 AM 68.0 °F - 68.0 °F 100% 29.82 in 8.0 mi Calm Calm - N/A   Overcast
5:55 AM 68.0 °F - 68.0 °F 100% 29.82 in 10.0 mi Calm Calm - N/A   Overcast
6:15 AM 69.8 °F - 69.8 °F 100% 29.83 in 10.0 mi Calm Calm - N/A   Overcast
6:35 AM 69.8 °F - 69.8 °F 100% 29.83 in 10.0 mi NW 4.6 mph - N/A   Overcast
6:55 AM 69.8 °F - 69.8 °F 100% 29.84 in 6.0 mi NNW 4.6 mph - N/A   Overcast
7:15 AM 69.8 °F - 69.8 °F 100% 29.85 in 4.0 mi North 4.6 mph - N/A   Overcast
7:35 AM 69.8 °F - 69.8 °F 100% 29.86 in 4.0 mi NNW 4.6 mph - N/A   Overcast
7:55 AM 71.6 °F - 71.6 °F 100% 29.87 in 5.0 mi North 5.8 mph - N/A   Overcast
8:15 AM 71.6 °F - 71.6 °F 100% 29.87 in 4.0 mi Calm Calm - N/A   Overcast
8:35 AM 71.6 °F - 71.6 °F 100% 29.88 in 5.0 mi Variable 4.6 mph - N/A   Overcast
8:55 AM 71.6 °F - 71.6 °F 100% 29.88 in 8.0 mi Variable 3.5 mph - N/A   Overcast
9:15 AM - - - N/A% 29.88 in 8.0 mi North 3.5 mph - N/A   Overcast
9:35 AM - - - N/A% 29.88 in 6.0 mi WNW 4.6 mph - N/A   Overcast
9:55 AM 73.4 °F - 73.4 °F 100% 29.88 in 9.0 mi WNW 4.6 mph - N/A   Overcast
10:15 AM 73.4 °F - 73.4 °F 100% 29.88 in 10.0 mi Calm Calm - N/A   Overcast
10:35 AM 73.4 °F - 73.4 °F 100% 29.89 in 9.0 mi NW 4.6 mph - N/A   Overcast
10:55 AM 75.2 °F - 75.2 °F 100% 29.89 in 9.0 mi NW 4.6 mph - N/A   Overcast
11:15 AM - - - N/A% 29.89 in 7.0 mi North 3.5 mph - N/A   Overcast
11:35 AM 77.0 °F - 77.0 °F 100% 29.89 in 9.0 mi NW 5.8 mph - N/A   Overcast
11:55 AM 77.0 °F - 77.0 °F 100% 29.89 in 6.0 mi NNW 8.1 mph - N/A   Overcast
12:15 PM 78.8 °F - 78.8 °F 100% 29.89 in 7.0 mi North 6.9 mph - N/A   Overcast
12:35 PM 80.6 °F 89.3 °F 80.6 °F 100% 29.89 in 10.0 mi NNW 5.8 mph 11.5 mph N/A   Mostly Cloudy
12:55 PM 80.6 °F 89.3 °F 80.6 °F 100% 29.89 in 10.0 mi NW 8.1 mph - N/A   Mostly Cloudy
1:15 PM 80.6 °F 88.1 °F 78.8 °F 94% 29.89 in 10.0 mi North 6.9 mph - N/A   Overcast
1:35 PM 82.4 °F 92.4 °F 78.8 °F 89% 29.89 in 9.0 mi NW 11.5 mph - N/A   Mostly Cloudy
1:55 PM 82.4 °F 90.9 °F 77.0 °F 84% 29.89 in 8.0 mi NNW 10.4 mph - N/A   Mostly Cloudy
2:15 PM 82.4 °F 88.2 °F 73.4 °F 74% 29.88 in 10.0 mi NW 9.2 mph - N/A   Scattered Clouds
2:35 PM 84.2 °F 89.6 °F 71.6 °F 66% 29.88 in 5.0 mi NW 10.4 mph - N/A   Haze
2:55 PM 84.2 °F 88.4 °F 69.8 °F 62% 29.89 in 10.0 mi NNW 8.1 mph 13.8 mph N/A   Partly Cloudy
3:15 PM 84.2 °F 87.3 °F 68.0 °F 58% 29.88 in 6.0 mi NW 10.4 mph 16.1 mph N/A   Haze
3:35 PM 82.4 °F 84.6 °F 66.2 °F 58% 29.89 in 8.0 mi WNW 10.4 mph - N/A   Partly Cloudy
3:55 PM 82.4 °F 85.4 °F 68.0 °F 62% 29.88 in 10.0 mi NW 8.1 mph - N/A   Partly Cloudy
4:15 PM 84.2 °F 86.6 °F 66.2 °F 55% 29.88 in 10.0 mi WNW 9.2 mph 15.0 mph N/A   Partly Cloudy
4:35 PM 84.2 °F 86.6 °F 66.2 °F 55% 29.87 in 10.0 mi NW 6.9 mph - N/A   Partly Cloudy
4:55 PM 84.2 °F 86.6 °F 66.2 °F 55% 29.87 in 8.0 mi NNW 8.1 mph - N/A   Partly Cloudy
5:15 PM 84.2 °F 86.6 °F 66.2 °F 55% 29.87 in 8.0 mi Variable 4.6 mph - N/A   Scattered Clouds
5:35 PM 82.4 °F 83.9 °F 64.4 °F 54% 29.88 in 10.0 mi NNW 5.8 mph - N/A   Partly Cloudy
5:55 PM 82.4 °F 84.6 °F 66.2 °F 58% 29.88 in 10.0 mi NNW 8.1 mph - N/A   Scattered Clouds
6:15 PM 82.4 °F 83.9 °F 64.4 °F 54% 29.89 in 9.0 mi NNW 4.6 mph - N/A   Mostly Cloudy
6:35 PM 80.6 °F 82.3 °F 64.4 °F 58% 29.89 in 10.0 mi NW 4.6 mph - N/A   Mostly Cloudy
6:55 PM 82.4 °F 83.9 °F 64.4 °F 54% 29.89 in 10.0 mi NW 5.8 mph - N/A   Mostly Cloudy
7:15 PM 82.4 °F 83.9 °F 64.4 °F 54% 29.90 in 10.0 mi NW 4.6 mph 11.5 mph N/A   Overcast
7:35 PM 80.6 °F 81.8 °F 62.6 °F 54% 29.91 in 10.0 mi NNE 9.2 mph - N/A   Overcast
7:55 PM 77.0 °F - 64.4 °F 65% 29.91 in 5.0 mi Variable 3.5 mph - N/A   Haze
8:15 PM 75.2 °F - 68.0 °F 78% 29.91 in 10.0 mi Calm Calm - N/A   Overcast
8:35 PM 75.2 °F - 69.8 °F 83% 29.92 in 9.0 mi NNW 5.8 mph - N/A   Mostly Cloudy
8:55 PM 73.4 °F - 71.6 °F 94% 29.92 in 10.0 mi Calm Calm - N/A   Scattered Clouds
9:15 PM 73.4 °F - 71.6 °F 94% 29.93 in 10.0 mi Calm Calm - N/A   Scattered Clouds
9:35 PM 71.6 °F - 71.6 °F 100% 29.92 in 10.0 mi Calm Calm - N/A   Partly Cloudy
9:55 PM 71.6 °F - 71.6 °F 100% 29.93 in 9.0 mi Calm Calm - N/A   Clear
10:15 PM 71.6 °F - 71.6 °F 100% 29.93 in 6.0 mi Calm Calm - N/A   Clear
10:35 PM 71.6 °F - 71.6 °F 100% 29.93 in 7.0 mi Calm Calm - N/A   Clear
10:55 PM 71.6 °F - 71.6 °F 100% 29.93 in 9.0 mi Calm Calm - N/A   Clear
11:15 PM 69.8 °F - 69.8 °F 100% 29.93 in 7.0 mi Calm Calm - N/A   Clear
11:35 PM 69.8 °F - 69.8 °F 100% 29.93 in 6.0 mi Calm Calm - N/A   Clear
11:55 PM 69.8 °F - 69.8 °F 100% 29.94 in 10.0 mi Calm Calm - N/A   Clear